Snowfall_Accumulation
0.0 0.0 0.0 0.0 0.0 0.0 0.0 0.0 0.0 0.0 0.0 0.0 0.0 0.0 0.0 0.0 0.0 0.0 0.0 0.0 0.0 0.0 0.0 0.0 0.0 0.0 0.0 0.0 0.0 0.0 0.0 0.0 0.0 0.0 0.0 0.0 0.0 0.0 0.0 0.0 0.0 0.0 0.0 0.0
0.0 0.0 0.0 0.0 0.0 0.0 0.0 0.0 0.0 0.0 0.0 0.0 0.0 0.0 0.0 0.0 0.0 0.0 0.0 0.0 0.0 0.0 0.0 0.0 0.0 0.0 0.0 0.0 0.0 0.0 0.0 0.0 0.0 0.0 0.0 0.0 0.0 0.0 0.0 0.0 0.0 0.0 0.0 0.0
0.1 0.0 0.0 0.0 0.0 0.0 0.0 0.0 0.0 0.0 0.0 0.0 0.0 0.0 0.0 0.0 0.0 0.0 0.0 0.0 0.0 0.0 0.0 0.0 0.0 0.0 0.0 0.0 0.0 0.0 0.0 0.0 0.0 0.0 0.0 0.0 0.0 0.0 0.0 0.0 0.0 0.0 0.0 0.0
0.0 0.0 1.0 0.0 0.0 0.0 0.0 0.0 0.0 0.0 0.0 0.0 0.0 0.0 0.0 0.0 0.0 0.0 0.0 0.0 0.0 0.0 0.0 0.0 0.0 0.0 0.0 0.0 0.0 0.0 0.0 0.0 0.0 0.0 0.0 0.0 0.0 0.0 0.0 0.0 0.0 0.0 0.0 0.0
0.3 0.0 0.0 0.0 0.0 0.0 0.0 0.0 0.0 0.0 0.0 0.0 0.0 0.0 0.0 0.0 0.0 0.0 0.0 0.0 0.0 0.0 0.0 0.0 0.0 0.0 0.0 0.0 0.0 0.0 0.0 0.0 0.0 0.0 0.0 0.0 0.0 0.0 0.0 0.0 0.0 0.0 0.0 0.0
1.1 0.4 0.0 0.0 0.0 0.0 0.0 0.0 0.0 0.0 0.0 0.0 0.0 0.0 0.0 0.0 0.0 0.0 0.0 0.0 0.0 0.0 0.0 0.0 0.0 0.0 0.0 0.0 0.0 0.0 0.0 0.0 0.0 0.0 0.0 0.0 0.0 0.0 0.0 0.0 0.0 0.0 0.0 0.0
1.5 0.7 0.0 0.0 0.0 0.0 0.0 0.0 0.0 0.0 0.0 0.0 0.0 0.0 0.0 0.0 0.0 0.0 0.0 0.0 0.0 0.0 0.0 0.0 0.0 0.0 0.0 0.0 0.0 0.0 0.0 0.0 0.0 0.0 0.0 0.0 0.0 0.0 0.0 0.0 0.0 0.0 0.0 0.0
1.4 1.6 0.2 0.0 0.0 0.0 0.0 0.0 0.0 0.0 0.0 0.0 0.0 0.0 0.0 0.0 0.0 0.0 0.0 0.0 0.0 0.0 0.0 0.0 0.0 0.0 0.0 0.0 0.0 0.0 0.0 0.0 0.0 0.0 0.0 0.0 0.0 0.0 0.0 0.0 0.0 0.0 0.0 0.0
0.0 0.0 0.0 0.0 0.0 0.0 0.0 0.0 0.0 0.0 0.0 0.0 0.0 0.0 0.0 0.0 0.0 0.0 0.0 0.0 0.0 0.0 0.0 0.0 0.0 0.0 0.0 0.0 0.0 0.0 0.0 0.0 0.0 0.0 0.0 0.0 0.0 0.0 0.0 0.0 0.0 0.0 0.0 0.0
0.0 0.0 0.0 0.0 0.0 0.0 0.0 0.0 0.0 0.0 0.0 0.0 0.0 0.0 0.0 0.0 0.0 0.0 0.0 0.0 0.0 0.0 0.0 0.0 0.0 0.0 0.0 0.0 0.0 0.0 0.0 0.0 0.0 0.0 0.0 0.0 0.0 0.0 0.0 0.0 0.0 0.0 0.0 0.0
0.0 0.0 0.0 0.0 0.0 0.0 0.0 0.0 0.0 0.0 0.0 0.0 0.0 0.0 0.0 0.0 0.0 0.0 0.0 0.0 0.0 0.0 0.0 0.0 0.0 0.0 0.0 0.0 0.0 0.0 0.0 0.0 0.0 0.0 0.0 0.0 0.0 0.0 0.0 0.0 0.0 0.0 0.0 0.0
0.0 0.0 0.0 0.0 0.0 0.0 0.0 0.0 0.0 0.0 0.0 0.0 0.0 0.0 0.0 0.0 0.0 0.0 0.0 0.0 0.0 0.0 0.0 0.0 0.0 0.0 0.0 0.0 0.0 0.0 0.0 0.0 0.0 0.0 0.0 0.0 0.0 0.0 0.0 0.0 0.0 0.0 0.0 0.0
0.0 0.0 0.0 0.0 0.0 0.0 0.0 0.0 0.0 0.0 0.0 0.0 0.0 0.0 0.0 0.0 0.0 0.0 0.0 0.0 0.0 0.0 0.0 0.0 0.0 0.0 0.0 0.0 0.0 0.0 0.0 0.0 0.0 0.0 0.0 0.0 0.0 0.0 0.0 0.0 0.0 0.0 0.0 0.0
0.0 0.0 0.0 0.0 0.0 0.0 0.0 0.0 0.0 0.0 0.0 0.0 0.0 0.0 0.0 0.0 0.0 0.0 0.0 0.0 0.0 0.0 0.0 0.0 0.0 0.0 0.0 0.0 0.0 0.0 0.0 0.0 0.0 0.0 0.0 0.0 0.0 0.0 0.2 0.1 0.1 0.2 0.1 0.2
0.0 0.0 0.0 0.0 0.0 0.0 0.0 0.0 0.0 0.0 0.0 0.0 0.0 0.0 0.0 0.0 0.0 0.0 0.0 0.0 0.0 0.0 0.0 0.0 0.0 0.0 0.0 0.0 0.0 0.0 0.0 0.0 0.3 0.6 0.9 0.8 0.6 0.4 0.5 0.9 1.0 0.9 0.7 0.5
0.0 0.0 0.0 0.0 0.0 0.0 0.0 0.0 0.0 0.0 0.0 0.0 0.0 0.0 0.0 0.0 0.0 0.0 0.0 0.0 0.0 0.0 0.0 0.0 0.0 0.0 0.0 0.1 0.3 0.2 0.4 1.3 1.4 1.5 1.6 1.7 1.8 1.8 1.6 1.3 1.0 0.9 0.8 0.8
0.0 0.0 0.0 0.0 0.0 0.0 0.0 0.0 0.0 0.0 0.0 0.0 0.0 0.0 0.0 0.0 0.0 0.0 0.0 0.0 0.0 0.0 0.0 0.1 0.1 0.8 1.1 1.6 2.0 2.3 3.1 3.3 3.1 2.9 3.1 2.8 2.2 1.7 1.3 1.3 1.2 1.2 1.2 1.1
0.0 0.0 0.0 0.0 0.0 0.0 0.0 0.0 0.0 0.0 0.0 0.0 0.0 0.0 0.0 0.0 0.0 1.0 0.4 0.2 0.3 1.0 1.9 3.7 4.1 5.1 5.3 5.4 5.3 5.2 4.8 4.2 3.8 3.3 2.7 2.5 2.0 1.4 1.3 1.4 1.2 0.9 0.7 0.5
0.1 0.2 0.2 0.1 0.1 0.5 0.4 0.3 0.2 0.2 0.3 0.4 0.3 0.1 2.2 2.8 2.9 3.9 4.1 5.9 7.3 8.0 9.9 8.2 7.2 6.9 6.4 5.5 4.4 3.9 3.4 2.7 2.1 1.8 1.7 1.5 1.3 1.1 1.0 0.8 0.7 0.6 0.6 0.5
0.2 0.1 0.2 0.2 0.2 0.3 0.4 0.5 0.9 1.6 2.0 2.1 2.7 6.0 7.9 9.6 9.4 9.7 8.9 9.6 9.8 9.5 8.6 7.1 5.4 4.4 3.8 2.9 2.2 1.8 1.7 1.6 1.4 1.4 1.2 0.9 0.7 0.8 0.7 0.7 0.7 0.7 0.7 0.7
1.9 2.0 2.2 3.3 3.3 4.7 5.6 6.6 6.9 9.3 11.6 11.3 10.1 11.1 11.0 11.8 10.9 10.1 8.7 8.3 8.9 6.4 5.0 4.3 3.5 3.0 2.1 1.8 1.4 1.2 0.9 0.8 0.6 0.6 0.6 0.6 0.6 0.6 0.6 0.4 0.1 0.1 0.1 0.1
5.4 5.8 6.8 7.1 6.7 8.7 9.2 8.9 7.8 8.3 8.4 8.3 8.0 7.8 7.0 8.0 7.1 6.2 5.8 5.2 5.4 4.0 3.1 2.7 2.2 1.7 1.1 0.8 0.6 0.6 0.5 0.5 0.3 0.2 0.1 0.0 0.0 0.0 0.1 0.1 0.0 0.0 0.1 0.1
5.4 5.1 5.4 5.9 5.6 6.2 6.6 6.2 6.3 5.1 5.4 5.4 5.4 5.5 4.8 5.0 4.5 3.5 4.0 3.8 2.8 2.4 1.8 1.6 0.7 0.4 0.5 0.6 0.0 0.0 0.0 0.0 0.0 0.0 0.1 0.1 0.2 0.2 0.1 0.0 0.0 0.0 0.0 0.2
5.2 4.9 5.5 5.1 3.4 2.0 3.6 5.1 3.6 3.4 3.1 3.0 3.0 2.8 2.1 1.9 2.5 2.1 1.8 1.8 1.0 0.6 0.3 0.0 0.0 0.0 0.0 0.1 0.0 0.0 0.0 0.0 0.1 0.2 0.2 0.1 0.1 0.2 0.2 0.3 0.1 0.1 0.2 0.1
4.7 4.8 4.7 4.1 3.0 3.9 3.3 3.0 1.8 2.0 1.4 1.5 1.6 1.4 1.1 0.7 0.3 1.3 0.1 0.2 0.0 0.1 0.1 0.0 0.0 0.0 0.0 0.2 0.2 0.0 0.1 0.1 0.3 0.2 0.2 0.2 0.1 0.0 0.0 0.0 0.2 0.2 0.1 0.1
4.0 3.9 3.9 3.3 3.2 2.6 2.3 1.3 1.8 1.7 0.9 1.0 1.3 1.1 0.9 0.7 0.3 0.4 0.4 0.4 0.2 0.3 0.7 0.4 0.3 0.0 0.2 0.3 0.2 0.0 0.2 0.2 0.2 0.3 0.4 0.1 0.0 0.1 0.1 0.2 0.3 0.1 0.0 0.1
3.3 3.0 2.1 1.8 2.3 2.0 1.5 1.2 1.1 1.7 1.4 1.1 1.5 1.4 0.9 0.9 0.7 0.5 0.7 0.4 0.5 0.4 0.4 0.3 0.4 0.1 0.0 0.1 0.2 0.3 0.1 0.1 0.2 0.3 0.1 0.1 0.1 0.1 0.1 0.2 0.1 0.1 0.0 0.0